Year,Month,Day,Hour,Minute,Value (Times are PST for temperature in C)
2005,09,24,00,00,9.20
2005,09,24,00,01,9.00
2005,09,24,00,02,8.90
2005,09,24,00,03,8.90
2005,09,24,00,04,8.70
2005,09,24,00,05,8.70
2005,09,24,00,06,8.70
2005,09,24,00,07,8.60
2005,09,24,00,08,8.60
2005,09,24,00,09,8.50
2005,09,24,00,10,8.50
2005,09,24,00,11,8.50
2005,09,24,00,12,8.70
2005,09,24,00,13,8.80
2005,09,24,00,14,8.90
2005,09,24,00,15,9.00
2005,09,24,00,16,9.20
2005,09,24,00,17,9.30
2005,09,24,00,18,9.40
2005,09,24,00,19,9.60
2005,09,24,00,20,9.70
2005,09,24,00,21,9.80
2005,09,24,00,22,9.90
2005,09,24,00,23,10.00
2005,09,24,00,24,10.10
2005,09,24,00,25,10.10
2005,09,24,00,26,10.20
2005,09,24,00,27,10.20
2005,09,24,00,28,10.30
2005,09,24,00,29,10.30
2005,09,24,00,30,10.40
2005,09,24,00,31,10.40
2005,09,24,00,32,10.50
2005,09,24,00,33,10.60
2005,09,24,00,34,10.60
2005,09,24,00,35,10.60
2005,09,24,00,36,10.40
2005,09,24,00,37,10.40
2005,09,24,00,38,10.30
2005,09,24,00,39,10.10
2005,09,24,00,40,10.00
2005,09,24,00,41,9.90
2005,09,24,00,42,9.90
2005,09,24,00,43,9.80
2005,09,24,00,44,9.60
2005,09,24,00,45,9.50
2005,09,24,00,46,9.40
2005,09,24,00,47,9.20
2005,09,24,00,48,9.20
2005,09,24,00,49,8.90
2005,09,24,00,50,8.80
2005,09,24,00,51,8.70
2005,09,24,00,52,8.80
2005,09,24,00,53,9.00
2005,09,24,00,54,9.10
2005,09,24,00,55,9.20
2005,09,24,00,56,9.20
2005,09,24,00,57,9.40
2005,09,24,00,58,9.50
2005,09,24,00,59,9.60
2005,09,24,01,00,9.80
2005,09,24,01,01,10.00
2005,09,24,01,02,10.10
2005,09,24,01,03,10.20
2005,09,24,01,04,10.30
2005,09,24,01,05,10.30
2005,09,24,01,06,10.30
2005,09,24,01,07,10.20
2005,09,24,01,08,10.20
2005,09,24,01,09,10.10
2005,09,24,01,10,10.10
2005,09,24,01,11,10.10
2005,09,24,01,12,10.10
2005,09,24,01,13,9.90
2005,09,24,01,14,9.80
2005,09,24,01,15,9.70
2005,09,24,01,16,9.60
2005,09,24,01,17,9.50
2005,09,24,01,18,9.30
2005,09,24,01,19,9.20
2005,09,24,01,20,9.10
2005,09,24,01,21,9.00
2005,09,24,01,22,8.90
2005,09,24,01,23,8.70
2005,09,24,01,24,8.60
2005,09,24,01,25,8.50
2005,09,24,01,26,8.50
2005,09,24,01,27,8.40
2005,09,24,01,28,8.30
2005,09,24,01,29,8.30
2005,09,24,01,30,8.20
2005,09,24,01,31,8.10
2005,09,24,01,32,8.00
2005,09,24,01,33,8.00
2005,09,24,01,34,7.90
2005,09,24,01,35,7.80
2005,09,24,01,36,7.80
2005,09,24,01,37,7.80
2005,09,24,01,38,7.80
2005,09,24,01,39,7.90
2005,09,24,01,40,7.90
2005,09,24,01,41,8.00
2005,09,24,01,42,8.10
2005,09,24,01,43,8.20
2005,09,24,01,44,8.20
2005,09,24,01,45,8.20
2005,09,24,01,46,8.30
2005,09,24,01,47,8.30
2005,09,24,01,48,8.30
2005,09,24,01,49,8.30
2005,09,24,01,50,8.20
2005,09,24,01,51,8.20
2005,09,24,01,52,8.20
2005,09,24,01,53,8.10
2005,09,24,01,54,8.10
2005,09,24,01,55,8.10
2005,09,24,01,56,8.20
2005,09,24,01,57,8.30
2005,09,24,01,58,8.40
2005,09,24,01,59,8.50
2005,09,24,02,00,8.70
2005,09,24,02,01,8.80
2005,09,24,02,02,8.90
2005,09,24,02,03,9.00
2005,09,24,02,04,9.10
2005,09,24,02,05,9.10
2005,09,24,02,06,9.20
2005,09,24,02,07,9.30
2005,09,24,02,08,9.30
2005,09,24,02,09,9.40
2005,09,24,02,10,9.40
2005,09,24,02,11,9.40
2005,09,24,02,12,9.40
2005,09,24,02,13,9.50
2005,09,24,02,14,9.50
2005,09,24,02,15,9.50
2005,09,24,02,16,9.50
2005,09,24,02,17,9.40
2005,09,24,02,18,9.40
2005,09,24,02,19,9.30
2005,09,24,02,20,9.30
2005,09,24,02,21,9.30
2005,09,24,02,22,9.30
2005,09,24,02,23,9.30
2005,09,24,02,24,9.30
2005,09,24,02,25,9.30
2005,09,24,02,26,9.30
2005,09,24,02,27,9.00
2005,09,24,02,28,8.80
2005,09,24,02,29,8.70
2005,09,24,02,30,8.50
2005,09,24,02,31,8.30
2005,09,24,02,32,8.10
2005,09,24,02,33,8.00
2005,09,24,02,34,8.00
2005,09,24,02,35,7.90
2005,09,24,02,36,7.80
2005,09,24,02,37,7.80
2005,09,24,02,38,7.80
2005,09,24,02,39,7.80
2005,09,24,02,40,7.90
2005,09,24,02,41,8.00
2005,09,24,02,42,8.00
2005,09,24,02,43,8.00
2005,09,24,02,44,8.00
2005,09,24,02,45,8.00
2005,09,24,02,46,7.90
2005,09,24,02,47,7.90
2005,09,24,02,48,7.90
2005,09,24,02,49,8.00
2005,09,24,02,50,8.20
2005,09,24,02,51,8.20
2005,09,24,02,52,8.40
2005,09,24,02,53,8.40
2005,09,24,02,54,8.50
2005,09,24,02,55,8.50
2005,09,24,02,56,8.60
2005,09,24,02,57,8.60
2005,09,24,02,58,8.70
2005,09,24,02,59,8.70
2005,09,24,03,00,8.80
2005,09,24,03,01,8.80
2005,09,24,03,02,8.90
2005,09,24,03,03,9.00
2005,09,24,03,04,9.00
2005,09,24,03,05,9.10
2005,09,24,03,06,9.10
2005,09,24,03,07,9.00
2005,09,24,03,08,8.90
2005,09,24,03,09,8.80
2005,09,24,03,10,8.60
2005,09,24,03,11,8.50
2005,09,24,03,12,8.40
2005,09,24,03,13,8.30
2005,09,24,03,14,8.20
2005,09,24,03,15,8.00
2005,09,24,03,16,7.90
2005,09,24,03,17,7.80
2005,09,24,03,18,7.80
2005,09,24,03,19,7.70
2005,09,24,03,20,7.60
2005,09,24,03,21,7.50
2005,09,24,03,22,7.50
2005,09,24,03,23,7.40
2005,09,24,03,24,7.40
2005,09,24,03,25,7.40
2005,09,24,03,26,7.30
2005,09,24,03,27,7.30
2005,09,24,03,28,7.30
2005,09,24,03,29,7.30
2005,09,24,03,30,7.30
2005,09,24,03,31,7.40
2005,09,24,03,32,7.40
2005,09,24,03,33,7.40
2005,09,24,03,34,7.40
2005,09,24,03,35,7.40
2005,09,24,03,36,7.40
2005,09,24,03,37,7.40
2005,09,24,03,38,7.40
2005,09,24,03,39,7.50
2005,09,24,03,40,7.50
2005,09,24,03,41,7.50
2005,09,24,03,42,7.50
2005,09,24,03,43,7.50
2005,09,24,03,44,7.50
2005,09,24,03,45,7.50
2005,09,24,03,46,7.50
2005,09,24,03,47,7.50
2005,09,24,03,48,7.50
2005,09,24,03,49,7.60
2005,09,24,03,50,7.60
2005,09,24,03,51,7.60
2005,09,24,03,52,7.60
2005,09,24,03,53,7.70
2005,09,24,03,54,7.70
2005,09,24,03,55,7.80
2005,09,24,03,56,7.80
2005,09,24,03,57,7.80
2005,09,24,03,58,7.80
2005,09,24,03,59,7.90
2005,09,24,04,00,7.90
2005,09,24,04,01,7.90
2005,09,24,04,02,7.90
2005,09,24,04,03,8.00
2005,09,24,04,04,7.90
2005,09,24,04,05,7.90
2005,09,24,04,06,7.80
2005,09,24,04,07,7.80
2005,09,24,04,08,7.70
2005,09,24,04,09,7.60
2005,09,24,04,10,7.50
2005,09,24,04,11,7.40
2005,09,24,04,12,7.40
2005,09,24,04,13,7.20
2005,09,24,04,14,7.10
2005,09,24,04,15,6.90
2005,09,24,04,16,6.60
2005,09,24,04,17,6.40
2005,09,24,04,18,6.30
2005,09,24,04,19,6.10
2005,09,24,04,20,6.00
2005,09,24,04,21,5.90
2005,09,24,04,22,5.90
2005,09,24,04,23,5.80
2005,09,24,04,24,5.80
2005,09,24,04,25,5.70
2005,09,24,04,26,5.70
2005,09,24,04,27,5.80
2005,09,24,04,28,5.80
2005,09,24,04,29,5.90
2005,09,24,04,30,5.90
2005,09,24,04,31,6.00
2005,09,24,04,32,6.10
2005,09,24,04,33,6.10
2005,09,24,04,34,6.20
2005,09,24,04,35,6.30
2005,09,24,04,36,6.40
2005,09,24,04,37,6.40
2005,09,24,04,38,6.50
2005,09,24,04,39,6.60
2005,09,24,04,40,6.70
2005,09,24,04,41,6.80
2005,09,24,04,42,6.80
2005,09,24,04,43,6.90
2005,09,24,04,44,7.10
2005,09,24,04,45,7.20
2005,09,24,04,46,7.30
2005,09,24,04,47,7.40
2005,09,24,04,48,7.40
2005,09,24,04,49,7.50
2005,09,24,04,50,7.60
2005,09,24,04,51,7.60
2005,09,24,04,52,7.70
2005,09,24,04,53,7.70
2005,09,24,04,54,7.70
2005,09,24,04,55,7.70
2005,09,24,04,56,7.70
2005,09,24,04,57,7.70
2005,09,24,04,58,7.70
2005,09,24,04,59,7.60
2005,09,24,05,00,7.60
2005,09,24,05,01,7.60
2005,09,24,05,02,7.50
2005,09,24,05,03,7.50
2005,09,24,05,04,7.50
2005,09,24,05,05,7.40
2005,09,24,05,06,7.40
2005,09,24,05,07,7.30
2005,09,24,05,08,7.30
2005,09,24,05,09,7.30
2005,09,24,05,10,7.30
2005,09,24,05,11,7.30
2005,09,24,05,12,7.30
2005,09,24,05,13,7.30
2005,09,24,05,14,7.30
2005,09,24,05,15,7.30
2005,09,24,05,16,7.20
2005,09,24,05,17,7.20
2005,09,24,05,18,7.20
2005,09,24,05,19,7.10
2005,09,24,05,20,7.10
2005,09,24,05,21,7.10
2005,09,24,05,22,7.00
2005,09,24,05,23,7.00
2005,09,24,05,24,6.90
2005,09,24,05,25,6.80
2005,09,24,05,26,6.80
2005,09,24,05,27,6.70
2005,09,24,05,28,6.70
2005,09,24,05,29,6.70
2005,09,24,05,30,6.70
2005,09,24,05,31,6.60
2005,09,24,05,32,6.60
2005,09,24,05,33,6.60
2005,09,24,05,34,6.60
2005,09,24,05,35,6.60
2005,09,24,05,36,6.60
2005,09,24,05,37,6.60
2005,09,24,05,38,6.60
2005,09,24,05,39,6.70
2005,09,24,05,40,6.70
2005,09,24,05,41,6.70
2005,09,24,05,42,6.60
2005,09,24,05,43,6.60
2005,09,24,05,44,6.60
2005,09,24,05,45,6.60
2005,09,24,05,46,6.60
2005,09,24,05,47,6.60
2005,09,24,05,48,6.50
2005,09,24,05,49,6.40
2005,09,24,05,50,6.40
2005,09,24,05,51,6.40
2005,09,24,05,52,6.40
2005,09,24,05,53,6.40
2005,09,24,05,54,6.40
2005,09,24,05,55,6.50
2005,09,24,05,56,6.60
2005,09,24,05,57,6.70
2005,09,24,05,58,6.70
2005,09,24,05,59,6.80
2005,09,24,06,00,6.90
2005,09,24,06,01,6.90
2005,09,24,06,02,7.00
2005,09,24,06,03,7.00
2005,09,24,06,04,6.90
2005,09,24,06,05,6.90
2005,09,24,06,06,6.80
2005,09,24,06,07,6.80
2005,09,24,06,08,6.70
2005,09,24,06,09,6.70
2005,09,24,06,10,6.60
2005,09,24,06,11,6.60
2005,09,24,06,12,6.60
2005,09,24,06,13,6.60
2005,09,24,06,14,6.40
2005,09,24,06,15,6.40
2005,09,24,06,16,6.40
2005,09,24,06,17,6.40
2005,09,24,06,18,6.40
2005,09,24,06,19,6.40
2005,09,24,06,20,6.40
2005,09,24,06,21,6.40
2005,09,24,06,22,6.40
2005,09,24,06,23,6.40
2005,09,24,06,24,6.40
2005,09,24,06,25,6.50
2005,09,24,06,26,6.60
2005,09,24,06,27,6.60
2005,09,24,06,28,6.60
2005,09,24,06,29,6.70
2005,09,24,06,30,6.70
2005,09,24,06,31,6.80
2005,09,24,06,32,6.80
2005,09,24,06,33,6.80
2005,09,24,06,34,6.90
2005,09,24,06,35,6.90
2005,09,24,06,36,6.90
2005,09,24,06,37,6.90
2005,09,24,06,38,6.90
2005,09,24,06,39,7.00
2005,09,24,06,40,7.00
2005,09,24,06,41,7.00
2005,09,24,06,42,7.10
2005,09,24,06,43,7.10
2005,09,24,06,44,7.10
2005,09,24,06,45,7.10
2005,09,24,06,46,7.20
2005,09,24,06,47,7.20
2005,09,24,06,48,7.20
2005,09,24,06,49,7.20
2005,09,24,06,50,7.10
2005,09,24,06,51,7.10
2005,09,24,06,52,7.00
2005,09,24,06,53,6.90
2005,09,24,06,54,6.80
2005,09,24,06,55,6.70
2005,09,24,06,56,6.60
2005,09,24,06,57,6.40
2005,09,24,06,58,6.30
2005,09,24,06,59,6.20
2005,09,24,07,00,6.10
2005,09,24,07,01,6.00
2005,09,24,07,02,5.90
2005,09,24,07,03,5.80
2005,09,24,07,04,5.80
2005,09,24,07,05,5.70
2005,09,24,07,06,5.70
2005,09,24,07,07,5.70
2005,09,24,07,08,5.70
2005,09,24,07,09,5.60
2005,09,24,07,10,5.50
2005,09,24,07,11,5.50
2005,09,24,07,12,5.40
2005,09,24,07,13,5.30
2005,09,24,07,14,5.30
2005,09,24,07,15,5.20
2005,09,24,07,16,5.10
2005,09,24,07,17,5.10
2005,09,24,07,18,4.90
2005,09,24,07,19,4.90
2005,09,24,07,20,4.90
2005,09,24,07,21,4.80
2005,09,24,07,22,4.80
2005,09,24,07,23,4.80
2005,09,24,07,24,4.80
2005,09,24,07,25,4.80
2005,09,24,07,26,4.80
2005,09,24,07,27,4.80
2005,09,24,07,28,4.70
2005,09,24,07,29,4.70
2005,09,24,07,30,4.70
2005,09,24,07,31,4.70
2005,09,24,07,32,4.70
2005,09,24,07,33,4.70
2005,09,24,07,34,4.70
2005,09,24,07,35,4.70
2005,09,24,07,36,4.80
2005,09,24,07,37,4.80
2005,09,24,07,38,4.80
2005,09,24,07,39,4.90
2005,09,24,07,40,4.90
2005,09,24,07,41,4.90
2005,09,24,07,42,4.90
2005,09,24,07,43,5.00
2005,09,24,07,44,5.10
2005,09,24,07,45,5.10
2005,09,24,07,46,5.30
2005,09,24,07,47,5.40
2005,09,24,07,48,5.50
2005,09,24,07,49,5.70
2005,09,24,07,50,5.80
2005,09,24,07,51,5.90
2005,09,24,07,52,6.00
2005,09,24,07,53,6.20
2005,09,24,07,54,6.30
2005,09,24,07,55,6.30
2005,09,24,07,56,6.30
2005,09,24,07,57,6.40
2005,09,24,07,58,6.60
2005,09,24,07,59,6.60
2005,09,24,08,00,6.60
2005,09,24,08,01,6.40
2005,09,24,08,02,6.40
2005,09,24,08,03,6.40
2005,09,24,08,04,6.40
2005,09,24,08,05,6.40
2005,09,24,08,06,6.40
2005,09,24,08,07,6.30
2005,09,24,08,08,6.30
2005,09,24,08,09,6.30
2005,09,24,08,10,6.20
2005,09,24,08,11,6.20
2005,09,24,08,12,6.20
2005,09,24,08,13,6.20
2005,09,24,08,14,6.20
2005,09,24,08,15,6.20
2005,09,24,08,16,6.20
2005,09,24,08,17,6.20
2005,09,24,08,18,6.20
2005,09,24,08,19,6.20
2005,09,24,08,20,6.20
2005,09,24,08,21,6.20
2005,09,24,08,22,6.20
2005,09,24,08,23,6.20
2005,09,24,08,24,6.20
2005,09,24,08,25,6.30
2005,09,24,08,26,6.30
2005,09,24,08,27,6.40
2005,09,24,08,28,6.40
2005,09,24,08,29,6.60
2005,09,24,08,30,6.70
2005,09,24,08,31,6.80
2005,09,24,08,32,6.90
2005,09,24,08,33,7.00
2005,09,24,08,34,7.10
2005,09,24,08,35,7.30
2005,09,24,08,36,7.40
2005,09,24,08,37,7.50
2005,09,24,08,38,7.70
2005,09,24,08,39,7.80
2005,09,24,08,40,7.90
2005,09,24,08,41,8.00
2005,09,24,08,42,8.20
2005,09,24,08,43,8.20
2005,09,24,08,44,8.30
2005,09,24,08,45,8.40
2005,09,24,08,46,8.50
2005,09,24,08,47,8.50
2005,09,24,08,48,8.60
2005,09,24,08,49,8.70
2005,09,24,08,50,8.80
2005,09,24,08,51,8.90
2005,09,24,08,52,9.00
2005,09,24,08,53,9.00
2005,09,24,08,54,9.20
2005,09,24,08,55,9.20
2005,09,24,08,56,9.30
2005,09,24,08,57,9.40
2005,09,24,08,58,9.50
2005,09,24,08,59,9.70
2005,09,24,09,00,9.80
2005,09,24,09,01,9.90
2005,09,24,09,02,10.10
2005,09,24,09,03,10.20
2005,09,24,09,04,10.50
2005,09,24,09,05,10.70
2005,09,24,09,06,10.80
2005,09,24,09,07,10.90
2005,09,24,09,08,11.10
2005,09,24,09,09,11.10
2005,09,24,09,10,11.20
2005,09,24,09,11,11.20
2005,09,24,09,12,11.30
2005,09,24,09,13,11.30
2005,09,24,09,14,11.40
2005,09,24,09,15,11.40
2005,09,24,09,16,11.40
2005,09,24,09,17,11.40
2005,09,24,09,18,11.50
2005,09,24,09,19,11.60
2005,09,24,09,20,11.60
2005,09,24,09,21,11.70
2005,09,24,09,22,11.80
2005,09,24,09,23,11.80
2005,09,24,09,24,11.90
2005,09,24,09,25,12.00
2005,09,24,09,26,12.10
2005,09,24,09,27,12.10
2005,09,24,09,28,12.20
2005,09,24,09,29,12.30
2005,09,24,09,30,12.40
2005,09,24,09,31,12.50
2005,09,24,09,32,12.50
2005,09,24,09,33,12.50
2005,09,24,09,34,12.70
2005,09,24,09,35,12.70
2005,09,24,09,36,12.80
2005,09,24,09,37,12.80
2005,09,24,09,38,12.90
2005,09,24,09,39,13.00
2005,09,24,09,40,13.00
2005,09,24,09,41,13.20
2005,09,24,09,42,13.30
2005,09,24,09,43,13.30
2005,09,24,09,44,13.40
2005,09,24,09,45,13.50
2005,09,24,09,46,13.60
2005,09,24,09,47,13.60
2005,09,24,09,48,13.60
2005,09,24,09,49,13.70
2005,09,24,09,50,13.70
2005,09,24,09,51,13.70
2005,09,24,09,52,13.70
2005,09,24,09,53,13.70
2005,09,24,09,54,13.70
2005,09,24,09,55,13.80
2005,09,24,09,56,13.80
2005,09,24,09,57,13.80
2005,09,24,09,58,13.80
2005,09,24,09,59,13.80
2005,09,24,10,00,13.90
2005,09,24,10,01,13.90
2005,09,24,10,02,13.90
2005,09,24,10,03,13.90
2005,09,24,10,04,13.90
2005,09,24,10,05,13.90
2005,09,24,10,06,13.80
2005,09,24,10,07,13.80
2005,09,24,10,08,13.90
2005,09,24,10,09,13.90
2005,09,24,10,10,13.90
2005,09,24,10,11,13.90
2005,09,24,10,12,14.00
2005,09,24,10,13,14.00
2005,09,24,10,14,14.00
2005,09,24,10,15,14.00
2005,09,24,10,16,14.00
2005,09,24,10,17,14.00
2005,09,24,10,18,14.00
2005,09,24,10,19,14.00
2005,09,24,10,20,14.00
2005,09,24,10,21,14.00
2005,09,24,10,22,13.90
2005,09,24,10,23,13.90
2005,09,24,10,24,13.90
2005,09,24,10,25,13.90
2005,09,24,10,26,13.90
2005,09,24,10,27,13.90
2005,09,24,10,28,13.90
2005,09,24,10,29,13.90
2005,09,24,10,30,13.90
2005,09,24,10,31,13.90
2005,09,24,10,32,13.90
2005,09,24,10,33,13.90
2005,09,24,10,34,13.80
2005,09,24,10,35,13.90
2005,09,24,10,36,13.90
2005,09,24,10,37,13.90
2005,09,24,10,38,13.90
2005,09,24,10,39,13.80
2005,09,24,10,40,13.80
2005,09,24,10,41,13.80
2005,09,24,10,42,13.80
2005,09,24,10,43,13.80
2005,09,24,10,44,13.90
2005,09,24,10,45,13.90
2005,09,24,10,46,13.90
2005,09,24,10,47,13.90
2005,09,24,10,48,13.90
2005,09,24,10,49,14.00
2005,09,24,10,50,14.00
2005,09,24,10,51,14.10
2005,09,24,10,52,14.20
2005,09,24,10,53,14.20
2005,09,24,10,54,14.20
2005,09,24,10,55,14.30
2005,09,24,10,56,14.50
2005,09,24,10,57,14.50
2005,09,24,10,58,14.50
2005,09,24,10,59,14.40
2005,09,24,11,00,14.40
2005,09,24,11,01,14.50
2005,09,24,11,02,14.60
2005,09,24,11,03,14.60
2005,09,24,11,04,14.70
2005,09,24,11,05,14.80
2005,09,24,11,06,14.80
2005,09,24,11,07,14.80
2005,09,24,11,08,14.90
2005,09,24,11,09,14.90
2005,09,24,11,10,14.90
2005,09,24,11,11,14.90
2005,09,24,11,12,15.00
2005,09,24,11,13,15.00
2005,09,24,11,14,15.10
2005,09,24,11,15,15.10
2005,09,24,11,16,15.10
2005,09,24,11,17,15.20
2005,09,24,11,18,15.20
2005,09,24,11,19,15.30
2005,09,24,11,20,15.30
2005,09,24,11,21,15.30
2005,09,24,11,22,15.30
2005,09,24,11,23,15.30
2005,09,24,11,24,15.30
2005,09,24,11,25,15.30
2005,09,24,11,26,15.30
2005,09,24,11,27,15.30
2005,09,24,11,28,15.30
2005,09,24,11,29,15.30
2005,09,24,11,30,15.30
2005,09,24,11,31,15.30
2005,09,24,11,32,15.30
2005,09,24,11,33,15.30
2005,09,24,11,34,15.40
2005,09,24,11,35,15.40
2005,09,24,11,36,15.50
2005,09,24,11,37,15.50
2005,09,24,11,38,15.50
2005,09,24,11,39,15.50
2005,09,24,11,40,15.60
2005,09,24,11,41,15.60
2005,09,24,11,42,15.60
2005,09,24,11,43,15.70
2005,09,24,11,44,15.70
2005,09,24,11,45,15.80
2005,09,24,11,46,15.80
2005,09,24,11,47,15.90
2005,09,24,11,48,15.90
2005,09,24,11,49,15.90
2005,09,24,11,50,15.80
2005,09,24,11,51,15.70
2005,09,24,11,52,15.50
2005,09,24,11,53,15.40
2005,09,24,11,54,15.40
2005,09,24,11,55,15.40
2005,09,24,11,56,15.30
2005,09,24,11,57,15.30
2005,09,24,11,58,15.30
2005,09,24,11,59,15.30
2005,09,24,12,00,15.30
2005,09,24,12,01,15.30
2005,09,24,12,02,15.20
2005,09,24,12,03,15.20
2005,09,24,12,04,15.30
2005,09,24,12,05,15.30
2005,09,24,12,06,15.30
2005,09,24,12,07,15.40
2005,09,24,12,08,15.50
2005,09,24,12,09,15.50
2005,09,24,12,10,15.60
2005,09,24,12,11,15.70
2005,09,24,12,12,15.90
2005,09,24,12,13,16.00
2005,09,24,12,14,16.20
2005,09,24,12,15,16.30
2005,09,24,12,16,16.40
2005,09,24,12,17,16.40
2005,09,24,12,18,16.40
2005,09,24,12,19,16.50
2005,09,24,12,20,16.60
2005,09,24,12,21,16.70
2005,09,24,12,22,16.50
2005,09,24,12,23,16.40
2005,09,24,12,24,16.40
2005,09,24,12,25,16.40
2005,09,24,12,26,16.30
2005,09,24,12,27,16.30
2005,09,24,12,28,16.20
2005,09,24,12,29,16.10
2005,09,24,12,30,16.10
2005,09,24,12,31,16.20
2005,09,24,12,32,16.20
2005,09,24,12,33,16.20
2005,09,24,12,34,16.20
2005,09,24,12,35,16.10
2005,09,24,12,36,16.10
2005,09,24,12,37,16.10
2005,09,24,12,38,16.10
2005,09,24,12,39,16.10
2005,09,24,12,40,16.10
2005,09,24,12,41,16.10
2005,09,24,12,42,16.10
2005,09,24,12,43,16.10
2005,09,24,12,44,16.20
2005,09,24,12,45,16.20
2005,09,24,12,46,16.20
2005,09,24,12,47,16.30
2005,09,24,12,48,16.30
2005,09,24,12,49,16.40
2005,09,24,12,50,16.30
2005,09,24,12,51,16.30
2005,09,24,12,52,16.30
2005,09,24,12,53,16.20
2005,09,24,12,54,16.30
2005,09,24,12,55,16.30
2005,09,24,12,56,16.40
2005,09,24,12,57,16.30
2005,09,24,12,58,16.20
2005,09,24,12,59,16.20
2005,09,24,13,00,16.20
2005,09,24,13,01,16.20
2005,09,24,13,02,16.20
2005,09,24,13,03,16.30
2005,09,24,13,04,16.30
2005,09,24,13,05,16.30
2005,09,24,13,06,16.20
2005,09,24,13,07,16.30
2005,09,24,13,08,16.40
2005,09,24,13,09,16.40
2005,09,24,13,10,16.40
2005,09,24,13,11,16.40
2005,09,24,13,12,16.40
2005,09,24,13,13,16.50
2005,09,24,13,14,16.60
2005,09,24,13,15,16.60
2005,09,24,13,16,16.70
2005,09,24,13,17,16.70
2005,09,24,13,18,16.70
2005,09,24,13,19,16.70
2005,09,24,13,20,16.80
2005,09,24,13,21,16.90
2005,09,24,13,22,16.90
2005,09,24,13,23,16.90
2005,09,24,13,24,16.90
2005,09,24,13,25,16.90
2005,09,24,13,26,16.80
2005,09,24,13,27,16.70
2005,09,24,13,28,16.70
2005,09,24,13,29,16.70
2005,09,24,13,30,16.70
2005,09,24,13,31,16.70
2005,09,24,13,32,16.70
2005,09,24,13,33,16.80
2005,09,24,13,34,16.90
2005,09,24,13,35,16.90
2005,09,24,13,36,17.10
2005,09,24,13,37,17.30
2005,09,24,13,38,17.40
2005,09,24,13,39,17.50
2005,09,24,13,40,17.60
2005,09,24,13,41,17.70
2005,09,24,13,42,17.80
2005,09,24,13,43,17.70
2005,09,24,13,44,17.70
2005,09,24,13,45,17.50
2005,09,24,13,46,17.40
2005,09,24,13,47,17.30
2005,09,24,13,48,17.00
2005,09,24,13,49,17.00
2005,09,24,13,50,16.90
2005,09,24,13,51,16.80
2005,09,24,13,52,16.60
2005,09,24,13,53,16.30
2005,09,24,13,54,16.10
2005,09,24,13,55,15.90
2005,09,24,13,56,15.80
2005,09,24,13,57,15.80
2005,09,24,13,58,15.80
2005,09,24,13,59,15.80
2005,09,24,14,00,15.80
2005,09,24,14,01,15.90
2005,09,24,14,02,15.80
2005,09,24,14,03,15.80
2005,09,24,14,04,15.80
2005,09,24,14,05,15.80
2005,09,24,14,06,15.80
2005,09,24,14,07,15.80
2005,09,24,14,08,15.90
2005,09,24,14,09,15.90
2005,09,24,14,10,15.90
2005,09,24,14,11,15.80
2005,09,24,14,12,15.90
2005,09,24,14,13,15.90
2005,09,24,14,14,15.80
2005,09,24,14,15,15.80
2005,09,24,14,16,15.80
2005,09,24,14,17,15.80
2005,09,24,14,18,15.80
2005,09,24,14,19,15.80
2005,09,24,14,20,15.80
2005,09,24,14,21,15.80
2005,09,24,14,22,15.80
2005,09,24,14,23,15.80
2005,09,24,14,24,15.80
2005,09,24,14,25,15.70
2005,09,24,14,26,15.70
2005,09,24,14,27,15.60
2005,09,24,14,28,15.60
2005,09,24,14,29,15.60
2005,09,24,14,30,15.70
2005,09,24,14,31,15.80
2005,09,24,14,32,15.90
2005,09,24,14,33,15.90
2005,09,24,14,34,15.80
2005,09,24,14,35,15.80
2005,09,24,14,36,15.80
2005,09,24,14,37,15.90
2005,09,24,14,38,16.00
2005,09,24,14,39,16.10
2005,09,24,14,40,16.10
2005,09,24,14,41,16.20
2005,09,24,14,42,16.40
2005,09,24,14,43,16.40
2005,09,24,14,44,16.40
2005,09,24,14,45,16.40
2005,09,24,14,46,16.30
2005,09,24,14,47,16.30
2005,09,24,14,48,16.40
2005,09,24,14,49,16.40
2005,09,24,14,50,16.40
2005,09,24,14,51,16.40
2005,09,24,14,52,16.40
2005,09,24,14,53,16.50
2005,09,24,14,54,16.50
2005,09,24,14,55,16.50
2005,09,24,14,56,16.50
2005,09,24,14,57,16.40
2005,09,24,14,58,16.40
2005,09,24,14,59,16.40
2005,09,24,15,00,16.40
2005,09,24,15,01,16.40
2005,09,24,15,02,16.30
2005,09,24,15,03,16.30
2005,09,24,15,04,16.20
2005,09,24,15,05,16.20
2005,09,24,15,06,16.30
2005,09,24,15,07,16.30
2005,09,24,15,08,16.30
2005,09,24,15,09,16.30
2005,09,24,15,10,16.30
2005,09,24,15,11,16.30
2005,09,24,15,12,16.30
2005,09,24,15,13,16.30
2005,09,24,15,14,16.30
2005,09,24,15,15,16.30
2005,09,24,15,16,16.40
2005,09,24,15,17,16.50
2005,09,24,15,18,16.60
2005,09,24,15,19,16.60
2005,09,24,15,20,16.60
2005,09,24,15,21,16.60
2005,09,24,15,22,16.60
2005,09,24,15,23,16.60
2005,09,24,15,24,16.60
2005,09,24,15,25,16.50
2005,09,24,15,26,16.40
2005,09,24,15,27,16.40
2005,09,24,15,28,16.50
2005,09,24,15,29,16.70
2005,09,24,15,30,16.70
2005,09,24,15,31,16.70
2005,09,24,15,32,17.00
2005,09,24,15,33,17.00
2005,09,24,15,34,17.00
2005,09,24,15,35,17.00
2005,09,24,15,36,16.90
2005,09,24,15,37,16.90
2005,09,24,15,38,16.90
2005,09,24,15,39,17.00
2005,09,24,15,40,17.00
2005,09,24,15,41,17.00
2005,09,24,15,42,17.10
2005,09,24,15,43,17.10
2005,09,24,15,44,17.20
2005,09,24,15,45,17.20
2005,09,24,15,46,17.20
2005,09,24,15,47,17.20
2005,09,24,15,48,17.20
2005,09,24,15,49,17.10
2005,09,24,15,50,17.10
2005,09,24,15,51,17.10
2005,09,24,15,52,17.20
2005,09,24,15,53,17.20
2005,09,24,15,54,17.30
2005,09,24,15,55,17.30
2005,09,24,15,56,17.30
2005,09,24,15,57,17.30
2005,09,24,15,58,17.40
2005,09,24,15,59,17.50
2005,09,24,16,00,17.50
2005,09,24,16,01,17.50
2005,09,24,16,02,17.50
2005,09,24,16,03,17.50
2005,09,24,16,04,17.60
2005,09,24,16,05,17.80
2005,09,24,16,06,17.90
2005,09,24,16,07,18.10
2005,09,24,16,08,18.10
2005,09,24,16,09,18.10
2005,09,24,16,10,18.10
2005,09,24,16,11,18.10
2005,09,24,16,12,18.10
2005,09,24,16,13,18.20
2005,09,24,16,14,18.10
2005,09,24,16,15,18.00
2005,09,24,16,16,17.90
2005,09,24,16,17,17.90
2005,09,24,16,18,17.90
2005,09,24,16,19,17.90
2005,09,24,16,20,17.90
2005,09,24,16,21,17.90
2005,09,24,16,22,18.00
2005,09,24,16,23,18.10
2005,09,24,16,24,18.20
2005,09,24,16,25,18.20
2005,09,24,16,26,18.20
2005,09,24,16,27,18.20
2005,09,24,16,28,18.10
2005,09,24,16,29,18.10
2005,09,24,16,30,18.10
2005,09,24,16,31,18.00
2005,09,24,16,32,17.90
2005,09,24,16,33,17.90
2005,09,24,16,34,18.00
2005,09,24,16,35,18.10
2005,09,24,16,36,18.10
2005,09,24,16,37,18.10
2005,09,24,16,38,18.00
2005,09,24,16,39,18.10
2005,09,24,16,40,18.20
2005,09,24,16,41,18.20
2005,09,24,16,42,18.20
2005,09,24,16,43,18.20
2005,09,24,16,44,18.10
2005,09,24,16,45,18.00
2005,09,24,16,46,17.90
2005,09,24,16,47,17.90
2005,09,24,16,48,17.90
2005,09,24,16,49,17.90
2005,09,24,16,50,17.90
2005,09,24,16,51,17.90
2005,09,24,16,52,17.90
2005,09,24,16,53,17.90
2005,09,24,16,54,17.90
2005,09,24,16,55,17.90
2005,09,24,16,56,17.90
2005,09,24,16,57,17.90
2005,09,24,16,58,17.90
2005,09,24,16,59,17.90
2005,09,24,17,00,17.90
2005,09,24,17,01,17.90
2005,09,24,17,02,17.90
2005,09,24,17,03,17.90
2005,09,24,17,04,18.00
2005,09,24,17,05,18.10
2005,09,24,17,06,18.00
2005,09,24,17,07,17.90
2005,09,24,17,08,17.90
2005,09,24,17,09,17.80
2005,09,24,17,10,17.70
2005,09,24,17,11,17.70
2005,09,24,17,12,17.80
2005,09,24,17,13,17.80
2005,09,24,17,14,17.80
2005,09,24,17,15,17.80
2005,09,24,17,16,17.90
2005,09,24,17,17,17.90
2005,09,24,17,18,17.90
2005,09,24,17,19,17.90
2005,09,24,17,20,17.90
2005,09,24,17,21,17.90
2005,09,24,17,22,17.90
2005,09,24,17,23,17.80
2005,09,24,17,24,17.80
2005,09,24,17,25,17.80
2005,09,24,17,26,17.90
2005,09,24,17,27,17.90
2005,09,24,17,28,17.90
2005,09,24,17,29,17.90
2005,09,24,17,30,17.90
2005,09,24,17,31,17.90
2005,09,24,17,32,17.90
2005,09,24,17,33,17.90
2005,09,24,17,34,17.90
2005,09,24,17,35,17.90
2005,09,24,17,36,17.90
2005,09,24,17,37,17.90
2005,09,24,17,38,17.90
2005,09,24,17,39,17.90
2005,09,24,17,40,17.90
2005,09,24,17,41,18.00